This demonstration page uses our WeatherBlox Daily Observations layout. Learn more.

Left ArrowRight Arrow

41.86663, -103.66717

Hourly Observations for March 10, 2021

Temp ( °F °C ) Dew Point ( °F °C ) Humidity (%) Winds ( mph kmh ) Pressure ( in mb ) Visibility ( mi km ) Precip ( " mm )
12:53 am 00:53 Cloudy with Light Rain 38 3.3 30 -1.1 73 73 NE 16 26 29.73 1007 10 16.0934 0.001 0.001
1:03 am 01:03 Cloudy with Light Rain 37 2.8 30 -1.1 76 76 NE 16 26 29.84 1010 10 16.0934 0.001 0.001
1:53 am 01:53 Cloudy 36 2.2 29 -1.7 76 76 NE 13 20 29.7 1006 10 16.0934 0.001 0.001
2:08 am 02:08 Cloudy 36 2.2 29 -1.7 76 76 NE 15 24 29.81 1009 10 16.0934 0 0
2:53 am 02:53 Cloudy with Light Snow 34 1.1 28 -2.2 79 79 NNE 12 19 29.68 1005 2.5 4.02335 0.02 0.508
3:08 am 03:08 Cloudy with Light Snow 34 1.1 28 -2.2 79 79 NNE 12 19 29.82 1010 3 4.82802 0.01 0.254
3:20 am 03:20 Cloudy with Light Snow 34 1.1 29 -1.7 82 82 NE 7 11 29.81 1010 2.5 4.02335 0.01 0.254
3:24 am 03:24 Cloudy with Light Snow 34 1 28 -2 81 81 NE 9 15 29.81 1010 3 4.82802 0 0
3:36 am 03:36 Cloudy with Light Snow 33 0.6 29 -1.7 85 85 NNW 5 7 29.83 1010 2.5 4.02335 0.02 0.508
3:53 am 03:53 Cloudy with Light Snow 33 0.6 29 -1.7 85 85 N 3 6 29.72 1006 1.75 2.816345 0.02 0.508
4:00 am 04:00 Cloudy with Light Snow 33 0.6 29 -1.7 85 85 N 5 7 29.83 1010 1 1.60934 0.01 0.254
4:30 am 04:30 Mostly Cloudy with Light Snow 32 0 29 -1.7 88 88 NNE 9 15 29.84 1010 0.75 1.207005 0.04 1.016
4:46 am 04:46 Mostly Cloudy with Light Snow 32 0 29 -1.7 88 88 N 7 11 29.84 1010 1 1.60934 0.06 1.524
4:53 am 04:53 Cloudy with Light Snow 32 0 29 -1.7 88 88 N 8 13 29.72 1007 1.25 2.011675 0.06 1.524
5:15 am 05:15 Cloudy with Light Snow 32 0 28 -2.2 85 85 NNW 7 11 29.85 1011 2.5 4.02335 0.01 0.254
5:22 am 05:22 Cloudy with Light Snow 32 0 28 -2.2 85 85 NNW 7 11 29.85 1011 4 6.43736 0.01 0.254
5:47 am 05:47 Cloudy with Light Snow 32 0 27 -3 80 80 NW 7 11 29.86 1011 2.5 4.02335 0.02 0.508
5:48 am 05:48 Cloudy with Light Snow 32 0 28 -2.2 85 85 NW 7 11 29.75 1007 2 3.21868 0.02 0.508
5:56 am 05:56 Cloudy with Light Snow 30 -1 28 -2 93 93 WNW 7 11 29.88 1012 1.5 2.41401 0 0
6:05 am 06:05 Cloudy with Light Snow 31 -0.6 28 -2.2 89 89 WNW 6 9 29.87 1012 1.75 2.816345 0.01 0.254
6:48 am 06:48 Cloudy with Snow 30 -1 28 -2 93 93 NW 8 13 29.88 1012 0.5 0.80467 0.03 0.762
6:53 am 06:53 Cloudy with Heavy Snow 31 -0.6 28 -2.2 89 89 NW 7 11 29.76 1008 0.25 0.402335 0.04 1.016
7:03 am 07:03 Mostly Cloudy with Snow 31 -0.6 28 -2.2 89 89 NNW 9 15 29.86 1011 0.5 0.80467 0.01 0.254
7:22 am 07:22 Mostly Cloudy with Snow 31 -0.6 28 -2.2 89 89 WNW 8 13 29.87 1012 0.5 0.80467 0.03 0.762
7:53 am 07:53 Cloudy with Light Snow 31 -0.6 28 -2.2 89 89 NW 9 15 29.77 1008 1.25 2.011675 0.04 1.016
8:08 am 08:08 Cloudy with Light Snow 31 -0.6 27 -2.8 85 85 NNW 8 13 29.88 1012 2.5 4.02335 0.001 0.001
8:20 am 08:20 Cloudy with Light Snow 31 -0.6 27 -2.8 85 85 NW 8 13 29.89 1012 3 4.82802 0.001 0.001
8:36 am 08:36 Cloudy with Light Snow 31 -0.6 27 -2.8 85 85 NW 8 13 29.89 1012 6 9.65604 0.001 0.001
8:53 am 08:53 Cloudy 32 0 27 -2.8 82 82 NW 8 13 29.79 1009 8 12.87472 0.001 0.001
9:05 am 09:05 Cloudy with Light Snow 32 0 27 -2.8 82 82 NNW 9 15 29.88 1012 2.5 4.02335 0.001 0.001
9:13 am 09:13 Cloudy with Light Snow 32 0 27 -2.8 82 82 NNW 10 17 29.88 1012 0.75 1.207005 0.01 0.254
9:22 am 09:22 Cloudy with Light Snow 32 0 28 -2.2 85 85 NNW 8 13 29.88 1012 1 1.60934 0.01 0.254
9:32 am 09:32 Cloudy with Light Snow 32 0 28 -2 87 87 NW 9 15 29.88 1012 1.25 2.011675 0 0
9:44 am 09:44 Cloudy with Light Snow 32 0 28 -2.2 85 85 WNW 8 13 29.88 1012 1.5 2.41401 0.02 0.508
9:51 am 09:51 Cloudy with Light Snow 32 0 28 -2 87 87 NW 7 11 29.88 1012 3 4.82802 0.02 0.508
9:53 am 09:53 Cloudy with Light Snow 32 0 28 -2.2 85 85 NW 9 15 29.8 1009 4 6.43736 0.02 0.508
10:12 am 10:12 Cloudy 33 0.6 28 -2.2 82 82 NNW 8 13 29.87 1012 10 16.0934 0.001 0.001
10:19 am 10:19 Cloudy 34 1.1 27 -2.8 76 76 N 7 11 29.86 1011 10 16.0934 0.001 0.001
10:33 am 10:33 Cloudy 33 0.6 27 -2.8 78 78 NNW 9 15 29.88 1012 10 16.0934 0.001 0.001
10:53 am 10:53 Cloudy with Light Snow 33 0.6 26 -3.3 75 75 N 13 20 29.8 1009 6 9.65604 0.001 0.001
11:03 am 11:03 Cloudy 33 0.6 26 -3.3 75 75 N 10 17 29.89 1012 10 16.0934 0.001 0.001
11:53 am 11:53 Cloudy 34 1.1 26 -3.3 73 73 N 9 15 29.83 1010 10 16.0934 0.001 0.001
12:02 pm 12:02 Cloudy 34 1 25 -4 70 70 N 10 17 29.89 1012 10 16.0934 0 0
12:30 pm 12:30 Cloudy 34 1.1 25 -3.9 70 70 NNE 7 11 29.89 1012 10 16.0934 0 0
12:53 pm 12:53 Cloudy 34 1.1 25 -3.9 70 70 NNW 8 13 29.84 1011 10 16.0934 0 0
1:53 pm 13:53 Cloudy 34 1.1 26 -3.3 73 73 undefined N/A 29.86 1011 10 16.0934 0.001 0.001
2:53 pm 14:53 Cloudy 34 1.1 25 -3.9 70 70 NNW 7 11 29.89 1012 10 16.0934 0 0
3:02 pm 15:02 Cloudy 33 0.6 25 -3.9 72 72 N 7 11 29.94 1014 10 16.0934 0 0
3:36 pm 15:36 Cloudy 34 1.1 25 -3.9 70 70 NNW 6 9 29.95 1014 10 16.0934 0 0
3:53 pm 15:53 Cloudy 33 0.6 24 -4.4 70 70 NW 6 9 29.92 1013 10 16.0934 0 0
4:00 pm 16:00 Cloudy 34 1.1 25 -3.9 70 70 NNW 6 9 29.95 1014 10 16.0934 0 0
4:10 pm 16:10 Cloudy 34 1.1 24 -4.4 67 67 WNW 6 9 29.96 1015 10 16.0934 0 0
4:53 pm 16:53 Cloudy 34 1.1 25 -3.9 70 70 WNW 5 7 29.95 1014 10 16.0934 0 0
5:32 pm 17:32 Cloudy 33 0.6 24 -4.4 70 70 NW 5 7 30.01 1016 10 16.0934 0 0
5:50 pm 17:50 Cloudy 34 1 27 -3 75 75 W 6 9 30.01 1016 10 16.0934 0 0
5:53 pm 17:53 Cloudy 33 0.6 25 -3.9 72 72 W 6 9 29.99 1016 10 16.0934 0 0
6:44 pm 18:44 Cloudy 32 0 26 -3.3 79 79 WSW 9 15 30.06 1018 10 16.0934 0.001 0.001
6:53 pm 18:53 Cloudy 32 0 26 -3.3 79 79 WSW 9 15 30.02 1017 10 16.0934 0.001 0.001
7:23 pm 19:23 Cloudy 32 0 26 -3.3 79 79 W 7 11 30.08 1019 10 16.0934 0 0
7:37 pm 19:37 Partly Cloudy 31 -0.6 25 -3.9 79 79 W 7 11 30.09 1019 10 16.0934 0 0
7:53 pm 19:53 Clear 30 -1.1 24 -4.4 79 79 NW 8 13 30.04 1017 10 16.0934 0 0
8:53 pm 20:53 Clear 27 -2.8 23 -5 85 85 WNW 6 9 30.06 1018 10 16.0934 0 0
9:53 pm 21:53 Clear 26 -3.3 22 -5.6 84 84 WNW 6 9 30.09 1019 10 16.0934 0 0
10:53 pm 22:53 Clear 24 -4.4 20 -6.7 84 84 NW 6 9 30.09 1019 10 16.0934 0 0
11:53 pm 23:53 Clear 22 -5.6 19 -7.2 89 89 NW 6 9 30.11 1020 10 16.0934 0 0

Powered by AerisWeather